Weather in Sibirsky

Russia / Altai Krai     53°34′44″N   83°46′00″E
temp.,
°C
wind,
m/s
gust,
m/s
humid.,
%
clouds,
%
prec.,
mm/h
press.,
hPa
HPBL,
m
17 may, mon
mon1701:00+14se1191100 4.6 101229
04:00+13e11925 0.0 101211
07:00+14wsw118990 0.0 101384
10:00+19nnw347273 0.0 1014925
13:00+20nnw2362100 0.1 10141183
16:00+24nnw454276 0.0 10142022
19:00+22nnw35485 0.0 10141534
22:00+16ene117010 0.0 101511
18 may, tue
tue1801:00+14s377797 0.1 1014131
04:00+14sse278897 1.9 1012164
07:00+15ssw5157897 2.4 1009416
10:00+23wsw6125395 0.2 10061011
13:00+27w7153551 0.2 10052590
16:00+26nw7123427 0.0 10052755
19:00+24n474497 0.0 10051320
22:00+19sse115989 0.0 100613
19 may, wed
wed1901:00+14nnw118589 0.8 100514
04:00+14w3587100 0.3 1004102
07:00+14nnw3889100 0.5 1004386
10:00+13n4685100 0.4 1005635
13:00+11nne6878100 0.4 1007857
16:00+12nne4766100 0.1 10091180
19:00+14nne584172 0.1 10082136
22:00+8n61246100 0.0 1011622
20 may, thu
thu2001:00+5n4105329 0.0 1012337
04:00+4nnw365683 0.0 1012148
07:00+5nnw255398 0.0 1014197
10:00+8n574886 0.2 10141605
13:00+9n6737100 1.0 10152543
16:00+9n7829100 0.0 10173234
19:00+9n592918 0.0 10192675
22:00+4nw23535 0.0 102251
21 may, fri
fri2101:00+3w225878 0.0 102338
04:00+2w2253100 0.0 102322
07:00+4ssw2546100 0.0 1023168
10:00+8sw5940100 0.0 10221342
13:00+4ssw51285100 2.6 1023909
16:00+4s61396100 1.9 1021730
19:00+4s51394100 4.6 1018614
22:00+5s4995100 0.6 1015467